Location: Poughquag
(41.6090°N, 73.6820°W)
Time: 03:27:05
(UTC-04:00)

Vanguard 1 - Pass Details

Date: 06 June 2020
Orbit: 650 x 3833 km, 34.2° (Epoch: 06 July)

Event Time Altitude Azimuth Distance (km) Brightness Sun altitude
Rises 12:39:09 0° 283° (WNW) 7,790 14.6 70.9°
Reaches altitude 10° 12:46:13 10° 271° (W) 6,919 14.5 71.1°
Maximum altitude 13:01:30 23° 230° (SW) 5,677 14.5 71.1°
Drops below altitude 10° 13:14:56 10° 187° (S) 5,936 14.5 70.6°
Sets 13:20:27 0° 173° (S) 6,474 14.5 70.3°
